Find Qianfan Xingzuo 08-14

NORAD ID: 69086 Int'l Des: 2026-104 Owner: YUANX Country: CN Constellation: spacesail operational
LEOCIRCULARPOLAR

当前视图

正在加载3D地球...

About Qianfan Xingzuo 08-14

Qianfan Xingzuo 08-14 (NORAD 69086) is a spacesail constellation satellite launched May 12, 2026 by YUANX of CN. It operates in LEO, CIRCULAR, POLAR orbit with a mass of 267.00 kg.

关于 Qianfan Xingzuo 08-14

正在加载描述...

即将过境

Passes for default location (London). Set your location on the main map for personalized predictions.

高度历史

Loading altitude history...

两行轨道根数

1 69086U 26104P 26178.11990269 -.01953843 00000-0 -19788+1 0 9991
2 69086 88.9869 340.5189 0011157 42.0263 318.1759 13.81008184 6465
Epoch: Jun 27, 2026 • Age: 9 hours

当前状态

高度 975.2 km
速度 7.36 km/s
星下点 -31.79°S, 107.1°W
发射日期 May 12, 2026
运行时间 0.1 years
类型 internet

技术详情

分类 Payload
质量 267.00 kg
干质量 267.00 kg
总质量 267.00 kg
长度 0.30 m
直径 3.00 m
跨度 10.00 m
形状 Box+pan
制造商 SECM
平台类型 Qianfan
阶段状态 In Orbit
所有者/国家 YUANX/CN

Most Searched